WZZ6082 LZIB-EDLW

Flight info

Callsign WZZ6082
Flight time 1h 15m
Altitude 38000
Route TOVKA DCT DITIS DCT IPDUL DCT RAPET T170 RUNEN DCT FULNO T842 ADEMI ADEMI2A
Aircraft A21N/M-SDE2E3FGHIRWXY/LB1

Departure

Time 2026-05-07 20:09
Airport M. R. Štefánik Airport (LZIB)

Arrival

Time 2026-05-07 21:24
Airport Dortmund Airport (EDLW)
Time Latitude Longitude Altitude Speed Heading
2026-05-07 19:34 48.16976 17.20187 444 ft 0 kts 314°
2026-05-07 19:57 48.16971 17.20196 444 ft 2 kts 314°
2026-05-07 19:57 48.16960 17.20212 444 ft 2 kts 314°
2026-05-07 19:58 48.16950 17.20227 444 ft 1 kts 329°
2026-05-07 19:58 48.16938 17.20233 444 ft 1 kts 359°
2026-05-07 19:58 48.16925 17.20229 444 ft 1 kts 30°
2026-05-07 19:58 48.16918 17.20221 444 ft 1 kts 53°
2026-05-07 19:59 48.16914 17.20213 444 ft 0 kts 44°
2026-05-07 20:01 48.16917 17.20217 444 ft 4 kts 43°
2026-05-07 20:02 48.16965 17.20284 444 ft 13 kts 43°
2026-05-07 20:02 48.17046 17.20399 444 ft 16 kts 43°
2026-05-07 20:02 48.17129 17.20519 444 ft 15 kts 44°
2026-05-07 20:02 48.17199 17.20571 444 ft 10 kts 356°
2026-05-07 20:03 48.17254 17.20512 444 ft 9 kts 314°
2026-05-07 20:03 48.17301 17.20445 444 ft 9 kts 316°
2026-05-07 20:03 48.17350 17.20373 444 ft 10 kts 314°
2026-05-07 20:03 48.17379 17.20334 444 ft 5 kts 324°
2026-05-07 20:04 48.17392 17.20323 444 ft 0 kts 338°
2026-05-07 20:04 48.17432 17.20305 444 ft 7 kts 353°
2026-05-07 20:04 48.17450 17.20305 444 ft 0 kts
2026-05-07 20:04 48.17451 17.20305 444 ft 0 kts
2026-05-07 20:05 48.17452 17.20305 444 ft 1 kts
2026-05-07 20:05 48.17491 17.20324 444 ft 9 kts 27°
2026-05-07 20:05 48.17529 17.20395 444 ft 9 kts 76°
2026-05-07 20:05 48.17509 17.20493 444 ft 3 kts 133°
2026-05-07 20:06 48.17508 17.20494 444 ft 0 kts 133°
2026-05-07 20:06 48.17508 17.20496 444 ft 0 kts 133°
2026-05-07 20:08 48.17448 17.20588 444 ft 44 kts 134°
2026-05-07 20:08 48.17061 17.21188 444 ft 113 kts 133°
2026-05-07 20:09 48.16372 17.22264 446 ft 169 kts 136°
2026-05-07 20:09 48.15528 17.23619 906 ft 176 kts 134°
2026-05-07 20:09 48.14764 17.24943 1656 ft 167 kts 135°
2026-05-07 20:10 48.13184 17.27421 2806 ft 167 kts 136°
2026-05-07 20:10 48.12366 17.28704 3265 ft 174 kts 133°
2026-05-07 20:10 48.11538 17.30082 3790 ft 178 kts 130°
2026-05-07 20:10 48.10802 17.31584 4262 ft 186 kts 114°
2026-05-07 20:11 48.10712 17.33537 4600 ft 198 kts 70°
2026-05-07 20:11 48.11514 17.35209 4923 ft 210 kts 34°
2026-05-07 20:11 48.12939 17.35832 5298 ft 220 kts 355°
2026-05-07 20:11 48.14475 17.35147 5614 ft 241 kts 339°
2026-05-07 20:12 48.16103 17.34269 6027 ft 258 kts 341°
2026-05-07 20:12 48.17834 17.33387 6610 ft 268 kts 340°
2026-05-07 20:12 48.19470 17.31957 7324 ft 275 kts 314°
2026-05-07 20:12 48.20357 17.29442 8078 ft 280 kts 286°
2026-05-07 20:13 48.20800 17.26577 8836 ft 283 kts 283°
2026-05-07 20:13 48.21237 17.23692 9540 ft 287 kts 284°
2026-05-07 20:13 48.21725 17.20739 10251 ft 290 kts 285°
2026-05-07 20:13 48.22252 17.17768 10706 ft 302 kts 286°
2026-05-07 20:14 48.22834 17.14626 11102 ft 316 kts 287°
2026-05-07 20:14 48.23431 17.11465 11695 ft 320 kts 287°
2026-05-07 20:14 48.24052 17.08205 11952 ft 320 kts 287°
2026-05-07 20:14 48.24665 17.04986 12010 ft 320 kts 287°
2026-05-07 20:15 48.25277 17.01779 12041 ft 320 kts 287°
2026-05-07 20:15 48.25893 16.98548 12033 ft 321 kts 287°
2026-05-07 20:15 48.26527 16.95298 12013 ft 319 kts 289°
2026-05-07 20:15 48.27289 16.92222 12013 ft 316 kts 294°
2026-05-07 20:16 48.28243 16.89215 12035 ft 316 kts 298°
2026-05-07 20:16 48.29287 16.86283 12252 ft 324 kts 299°
2026-05-07 20:16 48.30362 16.83302 13029 ft 322 kts 299°
2026-05-07 20:16 48.31416 16.80375 13746 ft 323 kts 298°
2026-05-07 20:17 48.32487 16.77392 14373 ft 326 kts 298°
2026-05-07 20:17 48.33575 16.74357 15002 ft 328 kts 298°
2026-05-07 20:17 48.34664 16.71309 15610 ft 331 kts 297°
2026-05-07 20:17 48.35741 16.68282 16183 ft 334 kts 297°
2026-05-07 20:18 48.36842 16.65187 16733 ft 337 kts 297°
2026-05-07 20:18 48.37948 16.62079 17289 ft 340 kts 296°
2026-05-07 20:18 48.39069 16.58920 17831 ft 342 kts 296°
2026-05-07 20:18 48.40188 16.55761 18332 ft 346 kts 296°
2026-05-07 20:19 48.41319 16.52563 18815 ft 350 kts 296°
2026-05-07 20:19 48.42461 16.49328 19287 ft 353 kts 296°
2026-05-07 20:19 48.43618 16.46053 19776 ft 356 kts 296°
2026-05-07 20:19 48.44778 16.42760 20255 ft 359 kts 296°
2026-05-07 20:20 48.45956 16.39413 20716 ft 363 kts 295°
2026-05-07 20:20 48.47136 16.36056 21181 ft 365 kts 295°
2026-05-07 20:20 48.48334 16.32646 21657 ft 368 kts 294°
2026-05-07 20:20 48.49515 16.29281 22144 ft 369 kts 294°
2026-05-07 20:21 48.50717 16.25845 22602 ft 371 kts 294°
2026-05-07 20:21 48.51931 16.22378 23030 ft 374 kts 294°
2026-05-07 20:21 48.53149 16.18889 23466 ft 377 kts 294°
2026-05-07 20:21 48.54359 16.15424 23895 ft 379 kts 294°
2026-05-07 20:22 48.55587 16.11897 24326 ft 381 kts 294°
2026-05-07 20:22 48.56825 16.08342 24732 ft 383 kts 293°
2026-05-07 20:22 48.58066 16.04768 25119 ft 385 kts 294°
2026-05-07 20:22 48.59327 16.01134 25511 ft 388 kts 293°
2026-05-07 20:23 48.60570 15.97547 25880 ft 390 kts 293°
2026-05-07 20:23 48.61840 15.93877 26235 ft 392 kts 293°
2026-05-07 20:23 48.63094 15.90238 26583 ft 394 kts 293°
2026-05-07 20:23 48.64367 15.86548 26931 ft 396 kts 293°
2026-05-07 20:24 48.65650 15.82826 27288 ft 398 kts 293°
2026-05-07 20:24 48.66923 15.79133 27659 ft 399 kts 293°
2026-05-07 20:24 48.68212 15.75385 28003 ft 401 kts 293°
2026-05-07 20:24 48.69510 15.71603 28322 ft 403 kts 293°
2026-05-07 20:25 48.70800 15.67837 28638 ft 405 kts 293°
2026-05-07 20:25 48.72106 15.64014 28958 ft 407 kts 293°
2026-05-07 20:25 48.73405 15.60209 29272 ft 409 kts 293°
2026-05-07 20:25 48.74722 15.56345 29584 ft 411 kts 293°
2026-05-07 20:26 48.76025 15.52520 29867 ft 413 kts 293°
2026-05-07 20:26 48.77350 15.48617 30167 ft 415 kts 293°
2026-05-07 20:26 48.78672 15.44726 30468 ft 417 kts 292°
2026-05-07 20:26 48.80012 15.40772 30746 ft 420 kts 292°
2026-05-07 20:27 48.81346 15.36823 31002 ft 422 kts 292°
2026-05-07 20:27 48.82677 15.32872 31229 ft 423 kts 292°
2026-05-07 20:27 48.84013 15.28905 31486 ft 423 kts 292°
2026-05-07 20:27 48.85353 15.24923 31710 ft 424 kts 292°
2026-05-07 20:28 48.86709 15.20886 31923 ft 425 kts 292°
2026-05-07 20:28 48.88041 15.16914 32124 ft 426 kts 293°
2026-05-07 20:28 48.89423 15.12872 32319 ft 428 kts 295°
2026-05-07 20:28 48.90921 15.08958 32510 ft 430 kts 297°
2026-05-07 20:29 48.92498 15.05101 32703 ft 431 kts 298°
2026-05-07 20:29 48.94105 15.01213 32904 ft 432 kts 298°
2026-05-07 20:29 48.95712 14.97325 33148 ft 430 kts 298°
2026-05-07 20:29 48.97292 14.93489 33402 ft 428 kts 299°
2026-05-07 20:30 48.98867 14.89659 33643 ft 427 kts 299°
2026-05-07 20:30 49.00434 14.85841 33876 ft 426 kts 299°
2026-05-07 20:30 49.02015 14.81981 34146 ft 425 kts 299°
2026-05-07 20:30 49.03585 14.78141 34407 ft 424 kts 299°
2026-05-07 20:31 49.05133 14.74348 34653 ft 424 kts 299°
2026-05-07 20:31 49.06701 14.70500 34894 ft 424 kts 299°
2026-05-07 20:31 49.08265 14.66654 35126 ft 424 kts 299°
2026-05-07 20:31 49.09820 14.62825 35346 ft 424 kts 299°
2026-05-07 20:32 49.11379 14.58981 35552 ft 424 kts 299°
2026-05-07 20:32 49.12944 14.55115 35746 ft 424 kts 299°
2026-05-07 20:32 49.14500 14.51269 35951 ft 424 kts 299°
2026-05-07 20:32 49.16050 14.47432 36147 ft 423 kts 299°
2026-05-07 20:33 49.17601 14.43584 36310 ft 424 kts 299°
2026-05-07 20:33 49.19150 14.39737 36454 ft 425 kts 299°
2026-05-07 20:33 49.20702 14.35876 36586 ft 426 kts 299°
2026-05-07 20:33 49.22263 14.31983 36713 ft 427 kts 298°
2026-05-07 20:34 49.23821 14.28095 36850 ft 428 kts 298°
2026-05-07 20:34 49.25383 14.24191 36982 ft 429 kts 298°
2026-05-07 20:34 49.26934 14.20313 37109 ft 430 kts 298°
2026-05-07 20:34 49.28498 14.16390 37223 ft 431 kts 298°
2026-05-07 20:35 49.30062 14.12464 37346 ft 431 kts 298°
2026-05-07 20:35 49.31638 14.08499 37466 ft 432 kts 298°
2026-05-07 20:35 49.33199 14.04566 37568 ft 433 kts 298°
2026-05-07 20:36 49.36350 13.96608 37748 ft 436 kts 298°
2026-05-07 20:36 49.39513 13.88595 37934 ft 438 kts 298°
2026-05-07 20:37 49.42893 13.80726 38054 ft 442 kts 304°
2026-05-07 20:37 49.46712 13.73356 38064 ft 443 kts 307°
2026-05-07 20:38 49.50631 13.66010 38067 ft 443 kts 307°
2026-05-07 20:38 49.54548 13.58643 38066 ft 443 kts 307°
2026-05-07 20:39 49.58450 13.51268 38069 ft 443 kts 307°
2026-05-07 20:39 49.62328 13.43916 38067 ft 443 kts 307°
2026-05-07 20:40 49.66211 13.36529 38066 ft 443 kts 307°
2026-05-07 20:40 49.70026 13.29255 38071 ft 443 kts 306°
2026-05-07 20:41 49.73945 13.21759 38069 ft 443 kts 306°
2026-05-07 20:41 49.77821 13.14324 38068 ft 443 kts 306°
2026-05-07 20:42 49.81693 13.06874 38069 ft 444 kts 306°
2026-05-07 20:42 49.85573 12.99392 38064 ft 444 kts 306°
2026-05-07 20:43 49.89447 12.91895 38056 ft 444 kts 306°
2026-05-07 20:43 49.93306 12.84408 38053 ft 444 kts 306°
2026-05-07 20:44 49.97141 12.76942 38048 ft 443 kts 306°
2026-05-07 20:44 50.00972 12.69466 38048 ft 443 kts 306°
2026-05-07 20:45 50.04832 12.61912 38051 ft 443 kts 306°
2026-05-07 20:45 50.08654 12.54400 38053 ft 444 kts 306°
2026-05-07 20:46 50.12498 12.46826 38056 ft 443 kts 307°
2026-05-07 20:46 50.16176 12.39105 38059 ft 442 kts 302°
2026-05-07 20:47 50.19287 12.30828 38061 ft 441 kts 295°
2026-05-07 20:47 50.21777 12.22047 38062 ft 440 kts 289°
2026-05-07 20:48 50.23851 12.13056 38068 ft 439 kts 288°
2026-05-07 20:48 50.25896 12.04089 38068 ft 438 kts 288°
2026-05-07 20:49 50.27962 11.95104 38074 ft 439 kts 288°
2026-05-07 20:49 50.30032 11.86096 38074 ft 439 kts 288°
2026-05-07 20:50 50.32082 11.77120 38071 ft 439 kts 288°
2026-05-07 20:50 50.34124 11.68135 38072 ft 440 kts 288°
2026-05-07 20:51 50.36147 11.59183 38075 ft 440 kts 288°
2026-05-07 20:51 50.38199 11.50064 38074 ft 439 kts 288°
2026-05-07 20:52 50.40210 11.41085 38071 ft 438 kts 288°
2026-05-07 20:52 50.42227 11.32045 38071 ft 437 kts 288°
2026-05-07 20:53 50.44233 11.23043 38071 ft 437 kts 288°
2026-05-07 20:53 50.46223 11.14045 38071 ft 438 kts 288°
2026-05-07 20:54 50.48213 11.05000 38070 ft 439 kts 288°
2026-05-07 20:54 50.50208 10.95885 38070 ft 439 kts 288°
2026-05-07 20:55 50.52166 10.86890 38077 ft 438 kts 288°
2026-05-07 20:55 50.54161 10.77819 38081 ft 437 kts 289°
2026-05-07 20:56 50.56226 10.68767 38085 ft 436 kts 289°
2026-05-07 20:56 50.58337 10.59848 38086 ft 437 kts 292°
2026-05-07 20:57 50.60960 10.51193 38084 ft 438 kts 296°
2026-05-07 20:57 50.63756 10.42702 38085 ft 438 kts 296°
2026-05-07 20:58 50.66581 10.34103 38090 ft 439 kts 296°
2026-05-07 20:58 50.69370 10.25571 38064 ft 439 kts 296°
2026-05-07 20:58 50.70754 10.21323 37818 ft 437 kts 296°
2026-05-07 20:59 50.72142 10.17053 37540 ft 430 kts 296°
2026-05-07 20:59 50.73479 10.12938 37263 ft 423 kts 296°
2026-05-07 20:59 50.74817 10.08811 36982 ft 417 kts 296°
2026-05-07 20:59 50.76115 10.04798 36697 ft 410 kts 296°
2026-05-07 21:00 50.77401 10.00816 36427 ft 404 kts 296°
2026-05-07 21:00 50.78651 9.96934 36177 ft 399 kts 296°
2026-05-07 21:00 50.79905 9.93035 35908 ft 396 kts 296°
2026-05-07 21:00 50.81142 9.89179 35641 ft 394 kts 296°
2026-05-07 21:01 50.82371 9.85347 35377 ft 391 kts 296°
2026-05-07 21:01 50.83595 9.81522 35112 ft 389 kts 296°
2026-05-07 21:01 50.84810 9.77718 34847 ft 387 kts 296°
2026-05-07 21:01 50.86017 9.73941 34581 ft 384 kts 297°
2026-05-07 21:02 50.87197 9.70131 34302 ft 393 kts 295°
2026-05-07 21:02 50.88305 9.66118 34009 ft 411 kts 293°
2026-05-07 21:02 50.89438 9.61841 33708 ft 425 kts 292°
2026-05-07 21:02 50.90563 9.57549 33371 ft 427 kts 292°
2026-05-07 21:03 50.91696 9.53221 33007 ft 426 kts 292°
2026-05-07 21:03 50.92837 9.48863 32631 ft 423 kts 292°
2026-05-07 21:03 50.93953 9.44612 32277 ft 421 kts 292°
2026-05-07 21:03 50.95076 9.40333 31906 ft 423 kts 292°
2026-05-07 21:04 50.96212 9.35992 31487 ft 428 kts 292°
2026-05-07 21:04 50.97338 9.31681 31027 ft 425 kts 292°
2026-05-07 21:04 50.98477 9.27308 30521 ft 423 kts 292°
2026-05-07 21:04 50.99577 9.23074 30032 ft 420 kts 292°
2026-05-07 21:05 51.00686 9.18796 29535 ft 416 kts 292°
2026-05-07 21:05 51.01783 9.14557 29039 ft 413 kts 291°
2026-05-07 21:05 51.02858 9.10390 28540 ft 410 kts 291°
2026-05-07 21:05 51.03936 9.06204 28056 ft 407 kts 291°
2026-05-07 21:06 51.04994 9.02087 27570 ft 404 kts 291°
2026-05-07 21:06 51.06057 8.97946 27022 ft 403 kts 291°
2026-05-07 21:06 51.07102 8.93876 26199 ft 400 kts 291°
2026-05-07 21:06 51.08144 8.89811 25340 ft 392 kts 291°
2026-05-07 21:07 51.09153 8.85864 24495 ft 383 kts 291°
2026-05-07 21:07 51.10136 8.82013 23657 ft 377 kts 291°
2026-05-07 21:07 51.11179 8.78246 22818 ft 374 kts 295°
2026-05-07 21:07 51.12375 8.74611 21979 ft 370 kts 298°
2026-05-07 21:08 51.13621 8.71080 21147 ft 365 kts 298°
2026-05-07 21:08 51.14877 8.67554 20310 ft 361 kts 299°
2026-05-07 21:08 51.16106 8.64093 19483 ft 358 kts 299°
2026-05-07 21:08 51.17311 8.60697 18666 ft 354 kts 298°
2026-05-07 21:09 51.18503 8.57329 17854 ft 350 kts 298°
2026-05-07 21:09 51.19743 8.54027 17038 ft 346 kts 303°
2026-05-07 21:09 51.21141 8.50911 16217 ft 343 kts 307°
2026-05-07 21:09 51.22652 8.48001 15404 ft 339 kts 310°
2026-05-07 21:10 51.24178 8.45170 14590 ft 336 kts 310°
2026-05-07 21:10 51.25687 8.42377 13784 ft 332 kts 310°
2026-05-07 21:10 51.27156 8.39654 12994 ft 328 kts 310°
2026-05-07 21:10 51.28634 8.36900 12239 ft 323 kts 311°
2026-05-07 21:11 51.30090 8.34180 11659 ft 321 kts 310°
2026-05-07 21:11 51.31541 8.31465 11075 ft 319 kts 310°
2026-05-07 21:11 51.34368 8.26091 9916 ft 314 kts 308°
2026-05-07 21:12 51.35624 8.23299 9338 ft 312 kts 304°
2026-05-07 21:12 51.36773 8.20321 8753 ft 308 kts 301°
2026-05-07 21:12 51.37838 8.17407 8174 ft 304 kts 301°
2026-05-07 21:12 51.38904 8.14473 7584 ft 301 kts 300°
2026-05-07 21:13 51.39943 8.11616 6999 ft 297 kts 300°
2026-05-07 21:13 51.40971 8.08785 6418 ft 294 kts 301°
2026-05-07 21:13 51.42001 8.05948 5827 ft 294 kts 302°
2026-05-07 21:13 51.43034 8.03144 5237 ft 293 kts 302°
2026-05-07 21:14 51.44071 8.00336 4647 ft 291 kts 302°
2026-05-07 21:14 51.45102 7.97536 4055 ft 290 kts 302°
2026-05-07 21:14 51.46128 7.94744 3475 ft 290 kts 302°
2026-05-07 21:14 51.47149 7.91963 3141 ft 292 kts 302°
2026-05-07 21:15 51.48107 7.89059 3098 ft 294 kts 295°
2026-05-07 21:15 51.48797 7.85981 3094 ft 289 kts 288°
2026-05-07 21:15 51.49312 7.82947 3088 ft 269 kts 286°
2026-05-07 21:15 51.49771 7.80075 3094 ft 266 kts 286°
2026-05-07 21:16 51.50231 7.77207 3097 ft 265 kts 286°
2026-05-07 21:16 51.50695 7.74354 3098 ft 264 kts 286°
2026-05-07 21:16 51.51163 7.71494 3100 ft 265 kts 286°
2026-05-07 21:16 51.51634 7.68633 3102 ft 264 kts 286°
2026-05-07 21:17 51.52082 7.65762 3099 ft 265 kts 281°
2026-05-07 21:17 51.51932 7.62835 3087 ft 267 kts 248°
2026-05-07 21:17 51.50878 7.60434 3102 ft 267 kts 221°
2026-05-07 21:17 51.49459 7.58506 3105 ft 268 kts 219°
2026-05-07 21:18 51.48008 7.56568 3103 ft 268 kts 219°
2026-05-07 21:18 51.46595 7.54640 3104 ft 267 kts 220°
2026-05-07 21:18 51.45226 7.52740 3092 ft 250 kts 221°
2026-05-07 21:18 51.43939 7.50934 3090 ft 241 kts 221°
2026-05-07 21:19 51.42713 7.49209 3087 ft 236 kts 221°
2026-05-07 21:19 51.41471 7.47439 2842 ft 235 kts 225°
2026-05-07 21:19 51.40651 7.45244 2562 ft 232 kts 262°
2026-05-07 21:19 51.40905 7.42823 2474 ft 217 kts 306°
2026-05-07 21:20 51.42004 7.41289 2500 ft 209 kts 339°
2026-05-07 21:20 51.43341 7.40965 2548 ft 186 kts 12°
2026-05-07 21:20 51.44428 7.41835 2494 ft 164 kts 40°
2026-05-07 21:20 51.45190 7.43063 2478 ft 160 kts 52°
2026-05-07 21:21 51.45873 7.44572 2509 ft 169 kts 57°
2026-05-07 21:21 51.46522 7.46159 2473 ft 171 kts 59°
2026-05-07 21:21 51.47117 7.47767 2289 ft 161 kts 62°
2026-05-07 21:21 51.47643 7.49268 2054 ft 148 kts 62°
2026-05-07 21:22 51.48121 7.50643 1832 ft 135 kts 63°
2026-05-07 21:22 51.48577 7.51942 1664 ft 133 kts 63°
2026-05-07 21:22 51.49034 7.53254 1493 ft 133 kts 63°
2026-05-07 21:22 51.49491 7.54556 1314 ft 133 kts 63°
2026-05-07 21:23 51.49950 7.55846 1101 ft 132 kts 62°
2026-05-07 21:23 51.50400 7.57113 944 ft 132 kts 62°
2026-05-07 21:23 51.50846 7.58403 789 ft 132 kts 63°
2026-05-07 21:23 51.51302 7.59696 589 ft 131 kts 62°
2026-05-07 21:24 51.51750 7.60968 438 ft 130 kts 62°
2026-05-07 21:24 51.52101 7.61974 427 ft 61 kts 61°
2026-05-07 21:24 51.52185 7.62298 427 ft 20 kts 123°
2026-05-07 21:24 51.52121 7.62368 427 ft 9 kts 152°
2026-05-07 21:25 51.52056 7.62381 427 ft 10 kts 209°
2026-05-07 21:25 51.52013 7.62281 427 ft 11 kts 241°
2026-05-07 21:25 51.51971 7.62156 427 ft 13 kts 242°
2026-05-07 21:25 51.51920 7.62012 427 ft 17 kts 240°
2026-05-07 21:26 51.51854 7.61826 427 ft 20 kts 240°
2026-05-07 21:26 51.51784 7.61630 427 ft 20 kts 241°
2026-05-07 21:26 51.51741 7.61506 427 ft 6 kts 241°
2026-05-07 21:26 51.51721 7.61451 427 ft 5 kts 240°
2026-05-07 21:27 51.51691 7.61431 427 ft 5 kts 169°
2026-05-07 21:27 51.51651 7.61461 427 ft 6 kts 151°
2026-05-07 21:27 51.51642 7.61472 427 ft 0 kts 121°
2026-05-07 21:27 51.51642 7.61476 427 ft 0 kts 86°
2026-05-07 21:28 51.51643 7.61479 427 ft 0 kts 63°
2026-05-07 21:28 51.51646 7.61482 427 ft 0 kts 35°
2026-05-07 21:29 51.51648 7.61482 427 ft 0 kts 11°
2026-05-07 21:29 51.51649 7.61482 427 ft 0 kts 359°
2026-05-07 21:30 51.51650 7.61481 427 ft 0 kts 341°
2026-05-07 21:30 51.51651 7.61480 427 ft 0 kts 329°